Location: Gleizolles
(44.4833°N, 6.7667°E)
Time: 18:47:20
(UTC+00:00)

Courier 1B Rocket - Pass Details

Date: 27 June 2024
Orbit: 920 x 1201 km, 28.2° (Epoch: 19 July)

Event Time Altitude Azimuth Distance (km) Brightness Sun altitude
Exits shadow 02:41:25 13° 219° (SW) 2,531 6.5 -10.1°
Maximum altitude 02:44:54 19° 184° (S) 2,200 6.4 -9.7°
Drops below altitude 10° 02:49:24 10° 142° (SE) 2,833 7.3 -9.1°
Sets 02:53:05 0° 126° (SE) 3,845 8.2 -8.7°
